SpazioLink.com il tuo mini portale

Terremoti in Italia, posizione geografica

Spaziolink il MiniPortale

Home Sfondi Cerca SuperEnalotto Posizione navi Terremoti Directory Barzellette Forum Giochi Meteo Gifs Software
Lista dei terremoti in Italia in tempo reale dopo l'elaborazione dei valori rilevati dai sensori dislocati nelle zone interessate, comprendenti gli eventi sismici di elevata magnitudo sull'intero globo, per visualizzare la posizione dell'epicentro su Google Maps cliccare sul nome del luogo evidenziato in blu.
DATA ORA MAG ≥ 2 ZONA REGIONE LAT LONG PROF km
20/01/2020 06:58:26 ML 2.6 6 km a nord di Albi (CZ) Calabria 39.07 16.61 5.8
20/01/2020 06:06:39 ML 2.9 6 km a nord di Albi (CZ) Calabria 39.08 16.61 5.8
20/01/2020 05:55:59 ML 2.1 6 km a nord di Albi (CZ) Calabria 39.08 16.61 5.4
20/01/2020 00:58:43 ML 2.2 4 km a nord-ovest di Cantalupo Ligure (AL) Mondo 44.74 9.00 10.1
19/01/2020 17:58:19 Mwp 6.2 Minahassa Peninsula, Sulawesi, Indonesia (Sea: Indonesia) Mondo -0.06 123.87 123.0
19/01/2020 14:28:00 Mwp 6.0 Southern Xinjiang, China (Land: China) Mondo 39.78 77.16 10.2
19/01/2020 13:52:33 mb 4.4 Albania Mondo 41.80 20.19 10.1
19/01/2020 13:38:16 mb 4.4 Albania Mondo 41.74 20.15 10.0
19/01/2020 08:59:39 ML 2.6 4 km a est di Borghetto di Borbera (AL) Mondo 44.73 8.99 9.0
19/01/2020 06:22:06 ML 3.1 2 km a sud-ovest di Neive (CN) Piemonte 44.72 8.10 11.6
18/01/2020 21:52:05 ML 2.3 4 km a sud-est di Balsorano (AQ) Abruzzo 41.78 13.60 14.4
18/01/2020 15:12:06 ML 3.3 2 km a nord-ovest di Papasidero (CS) Calabria 39.88 15.89 272.4
18/01/2020 09:28:36 ML 2.2 2 km a est di Antillo (ME) Sicilia 37.98 15.26 22.3
18/01/2020 01:27:23 ML 2.1 5 km nord-est Albi (CZ) Calabria 39.07 16.62 8.5
17/01/2020 13:14:29 ML 2.2 5 km a sud-ovest di Crognaleto (TE) Abruzzo 42.52 13.43 15.0
17/01/2020 05:13:08 ML 2.3 Costa Siciliana nord-orientale (Messina) Mare 38.30 15.13 129.4
17/01/2020 02:12:24 ML 2.7 4 km a sud di Troina (EN) Sicilia 37.75 14.61 26.7
17/01/2020 00:37:09 Mw 3.8 6 km nord-est Albi (CZ) Calabria 39.07 16.62 7.7
16/01/2020 23:49:26 ML 2.1 Costa Siracusana (Siracusa) Mare 37.00 15.31 18.6
16/01/2020 11:27:09 ML 2.0 7 km a ovest di Cortino (TE) Abruzzo 42.62 13.43 19.6
16/01/2020 06:00:48 ML 2.2 4 km a ovest di Alberobello (BA) Puglia 40.77 17.20 20.4
16/01/2020 02:21:20 ML 2.5 3 km a sud-ovest di Bronte (CT) Sicilia 37.77 14.81 10.8
15/01/2020 21:44:12 ML 2.0 4 km a est di Accumoli (RI) Lazio 42.70 13.29 9.1
15/01/2020 15:58:56 ML 2.2 3 km a sud-ovest di Agnosine (BS) Lombardia 45.63 10.34 7.5
15/01/2020 12:48:46 ML 2.5 4 km a nord di Aci Sant'Antonio (CT) Sicilia 37.64 15.13 0.5
15/01/2020 02:57:15 ML 2.0 4 km a ovest di Visso (MC) Marche 42.94 13.04 10.4
15/01/2020 01:38:46 ML 2.3 5 km a nord di Accumoli (RI) Lazio 42.74 13.24 10.7
14/01/2020 21:17:28 ML 2.0 Tirreno Meridionale (MARE) Mare 38.47 15.49 131.8
14/01/2020 14:30:53 ML 2.8 2 km a sud-ovest di Borgo Pace (PU) Marche 43.64 12.29 8.6
14/01/2020 01:46:10 ML 2.4 Costa Garganica (Foggia) Mare 42.02 15.45 8.3
13/01/2020 20:37:16 ML 2.3 Tirreno Meridionale (MARE) Mare 39.01 15.61 175.8
13/01/2020 17:27:57 ML 2.2 Costa Garganica (Foggia) Mare 42.04 15.42 8.4
13/01/2020 17:19:26 ML 2.0 5 km a sud-est di Castellina in Chianti (SI) Toscana 43.44 11.33 7.8
13/01/2020 17:14:48 ML 2.8 Costa Garganica (Foggia) Mare 42.08 15.44 2.0
13/01/2020 10:35:20 ML 2.0 3 km nord-est Accumoli (RI) Lazio 42.73 13.26 9.6
13/01/2020 05:24:40 ML 2.0 2 km a est di Cascia (PG) Umbria 42.72 13.04 10.5
13/01/2020 04:40:52 ML 2.5 1 km a sud-ovest di Collepardo (FR) Lazio 41.76 13.37 8.7
13/01/2020 02:22:42 ML 2.4 Tirreno Meridionale (MARE) Mare 38.94 15.59 265.4
- frasi d'auguri - subnet mask - partners - ipcheck - wi-fi - favicon - speedtest - programmone - calendariofeste - screenmates -
Locations of visitors to this page